Eveleth, MN

4:17 AM CDT on August 24, 2017 (GMT -0500)
Eveleth-Virginia Municipal

Weather History for KEVM - August, 2013

Change the Weather History Date:

Sunday, August 18, 2013

  Actual Average Record
Temperature  
Mean Temperature 66 °F -  
Max Temperature 78 °F 72 °F 91 °F (2003)
Min Temperature 53 °F 50 °F 37 °F (2007)
Growing Degree Days 16 (Base 50)    
Moisture  
Dew Point 55 °F    
Average Humidity 65    
Maximum Humidity 100    
Minimum Humidity 44    
Precipitation  
Precipitation 0.00 in - - ()
Sea Level Pressure  
Sea Level Pressure 30.04 in    
Wind  
Wind Speed 9 mph (SSW)    
Max Wind Speed 18 mph    
Max Gust Speed 28 mph    
Visibility 10 miles    
Events      
Averages and records for this station are not official NWS values.
T = Trace of Precipitation, MM = Missing Value Source: NWS Daily Summary

Daily Weather History Graph

Daily Weather History Graph

Search for Another Location

Airport or City:

Trip Planner

Search our weather history database for the weather conditions in past years. The results will help you decide how hot, cold, wet, or windy it might be!

Date:

Astronomy

Aug. 18, 2013 Rise Set
Actual Time 6:10 AM CDT 8:16 PM CDT
Civil Twilight 5:37 AM CDT 8:49 PM CDT
Nautical Twilight 4:55 AM CDT 9:30 PM CDT
Astronomical Twilight 4:09 AM CDT 10:16 PM CDT
Moon 6:26 PM CDT (8/18) 3:14 AM CDT (8/18)
Length of Visible Light 15h 11m
Length of Day
14h 05m
Waxing Gibbous, 92% of the Moon is Illuminated
Aug 18
Waxing Gibbous
Aug 20
Full
Aug 28
Last Quarter
Sep 5
New
Sep 12
First Quarter

Hourly Weather History & Observations

Time (CDT) Temp. Dew Point Humidity Pressure Visibility Wind Dir Wind Speed Gust Speed Precip Events Conditions
12:08 AM 62.6 °F 53.6 °F 72% 30.08 in 10.0 mi SSW 9.2 mph - N/A   Clear
12:27 AM 62.6 °F 53.6 °F 72% 30.08 in 10.0 mi SSW 9.2 mph - N/A   Clear
12:48 AM 62.6 °F 53.6 °F 72% 30.09 in 10.0 mi SSW 8.1 mph 16.1 mph N/A   Clear
1:08 AM 62.6 °F 53.6 °F 72% 30.09 in 10.0 mi SSW 10.4 mph - N/A   Clear
1:27 AM 62.6 °F 53.6 °F 72% 30.09 in 10.0 mi SSW 8.1 mph - N/A   Clear
1:48 AM 62.6 °F 53.6 °F 72% 30.09 in 10.0 mi SSW 6.9 mph - N/A   Clear
2:08 AM 62.6 °F 53.6 °F 72% 30.10 in 10.0 mi SW 6.9 mph - N/A   Clear
2:27 AM 62.6 °F 53.6 °F 72% 30.09 in 10.0 mi SW 5.8 mph - N/A   Clear
2:48 AM 62.6 °F 53.6 °F 72% 30.09 in 10.0 mi SW 6.9 mph - N/A   Clear
3:08 AM 60.8 °F 53.6 °F 77% 30.09 in 10.0 mi SW 6.9 mph - N/A   Clear
3:27 AM 59.0 °F 53.6 °F 82% 30.09 in 10.0 mi SW 4.6 mph - N/A   Clear
3:48 AM 59.0 °F 51.8 °F 77% 30.09 in 10.0 mi SW 5.8 mph - N/A   Clear
4:08 AM 59.0 °F 53.6 °F 82% 30.09 in 10.0 mi SW 5.8 mph - N/A   Clear
4:27 AM 59.0 °F 53.6 °F 82% 30.09 in 10.0 mi SSW 4.6 mph - N/A   Clear
4:48 AM 59.0 °F 53.6 °F 82% 30.09 in 10.0 mi SSW 3.5 mph - N/A   Clear
5:07 AM 57.2 °F 51.8 °F 82% 30.09 in 10.0 mi SSW 3.5 mph - N/A   Clear
5:28 AM 59.0 °F 51.8 °F 77% 30.09 in 10.0 mi SSW 3.5 mph - N/A   Clear
5:48 AM 57.2 °F 51.8 °F 82% 30.10 in 10.0 mi Calm Calm - N/A   Clear
6:07 AM 55.4 °F 53.6 °F 94% 30.10 in 10.0 mi Calm Calm - N/A   Clear
6:28 AM 53.6 °F 53.6 °F 100% 30.10 in 10.0 mi Calm Calm - N/A   Clear
6:48 AM 53.6 °F 51.8 °F 94% 30.10 in 10.0 mi Calm Calm - N/A   Clear
7:08 AM 53.6 °F 53.6 °F 100% 30.10 in 10.0 mi Calm Calm - N/A   Clear
7:28 AM 57.2 °F 55.4 °F 94% 30.10 in 10.0 mi SSW 3.5 mph - N/A   Clear
7:48 AM 59.0 °F 53.6 °F 82% 30.10 in 10.0 mi SSW 5.8 mph - N/A   Clear
8:08 AM 62.6 °F 55.4 °F 77% 30.10 in 10.0 mi SSW 5.8 mph - N/A   Clear
8:28 AM 62.6 °F 55.4 °F 77% 30.09 in 10.0 mi SSW 6.9 mph - N/A   Clear
8:47 AM 64.4 °F 55.4 °F 73% 30.09 in 10.0 mi SSW 8.1 mph - N/A   Clear
9:08 AM 64.4 °F 55.4 °F 73% 30.08 in 10.0 mi SSW 9.2 mph - N/A   Clear
9:28 AM 68.0 °F 55.4 °F 64% 30.08 in 10.0 mi SSW 10.4 mph - N/A   Clear
9:47 AM 69.8 °F 57.2 °F 64% 30.07 in 10.0 mi SW 11.5 mph 18.4 mph N/A   Clear
10:08 AM 71.6 °F 59.0 °F 64% 30.07 in 10.0 mi SW 11.5 mph 18.4 mph N/A   Clear
10:28 AM 71.6 °F 57.2 °F 60% 30.06 in 10.0 mi SSW 13.8 mph 20.7 mph N/A   Clear
10:47 AM 73.4 °F 55.4 °F 53% 30.05 in 10.0 mi SW 16.1 mph 21.9 mph N/A   Clear
11:08 AM 73.4 °F 57.2 °F 57% 30.05 in 10.0 mi SSW 16.1 mph 19.6 mph N/A   Clear
11:28 AM 73.4 °F 59.0 °F 61% 30.04 in 10.0 mi SSW 17.3 mph 23.0 mph N/A   Clear
11:47 AM 77.0 °F 59.0 °F 54% 30.03 in 10.0 mi SSW 13.8 mph - N/A   Clear
12:08 PM 77.0 °F 59.0 °F 54% 30.03 in 10.0 mi SSW 18.4 mph 24.2 mph N/A   Clear
12:28 PM 77.0 °F 59.0 °F 54% 30.04 in 10.0 mi South 15.0 mph 21.9 mph N/A   Clear
12:47 PM 77.0 °F 59.0 °F 54% 30.04 in 10.0 mi South 16.1 mph 27.6 mph N/A   Scattered Clouds
1:08 PM 77.0 °F 55.4 °F 47% 30.04 in 10.0 mi South 15.0 mph 26.5 mph N/A   Scattered Clouds
1:28 PM 77.0 °F 55.4 °F 47% 30.04 in 10.0 mi South 13.8 mph 20.7 mph N/A   Scattered Clouds
1:47 PM 77.0 °F 55.4 °F 47% 30.03 in 10.0 mi South 17.3 mph 21.9 mph N/A   Scattered Clouds
2:08 PM 77.0 °F 57.2 °F 50% 30.03 in 10.0 mi SSW 13.8 mph 19.6 mph N/A   Mostly Cloudy
2:28 PM 77.0 °F 55.4 °F 47% 30.03 in 10.0 mi SW 12.7 mph 18.4 mph N/A   Scattered Clouds
2:47 PM 77.0 °F 55.4 °F 47% 30.03 in 10.0 mi SSW 13.8 mph 20.7 mph N/A   Mostly Cloudy
3:08 PM 77.0 °F 55.4 °F 47% 30.03 in 10.0 mi SSW 11.5 mph 19.6 mph N/A   Mostly Cloudy
3:28 PM 77.0 °F 55.4 °F 47% 30.03 in 10.0 mi SSW 16.1 mph 24.2 mph N/A   Mostly Cloudy
3:47 PM 78.8 °F 55.4 °F 44% 30.01 in 10.0 mi SSW 12.7 mph 20.7 mph N/A   Scattered Clouds
4:08 PM 77.0 °F 55.4 °F 47% 30.02 in 10.0 mi SW 13.8 mph 20.7 mph N/A   Mostly Cloudy
4:28 PM 77.0 °F 53.6 °F 44% 30.01 in 10.0 mi WSW 12.7 mph - N/A   Scattered Clouds
4:48 PM 77.0 °F 53.6 °F 44% 30.01 in 10.0 mi WSW 12.7 mph 23.0 mph N/A   Scattered Clouds
5:08 PM 78.8 °F 55.4 °F 44% 30.00 in 10.0 mi SW 11.5 mph - N/A   Scattered Clouds
5:28 PM - - N/A% - 10.0 mi SSW 15.0 mph 20.7 mph N/A   Unknown
5:48 PM - - N/A% - 10.0 mi SW 16.1 mph 21.9 mph N/A   Unknown
6:08 PM 77.0 °F 53.6 °F 44% 29.99 in 10.0 mi SSW 12.7 mph 19.6 mph N/A   Clear
6:28 PM 77.0 °F 55.4 °F 47% 29.98 in 10.0 mi SSW 11.5 mph - N/A   Clear
6:47 PM 73.4 °F 55.4 °F 53% 29.98 in 10.0 mi SSW 10.4 mph 16.1 mph N/A   Scattered Clouds
7:08 PM 73.4 °F 55.4 °F 53% 29.97 in 10.0 mi SSW 8.1 mph - N/A   Scattered Clouds
7:28 PM 71.6 °F 55.4 °F 57% 29.96 in 10.0 mi SSW 6.9 mph - N/A   Clear
7:47 PM 71.6 °F 55.4 °F 57% 29.97 in 10.0 mi SSW 6.9 mph - N/A   Clear
8:08 PM 69.8 °F 55.4 °F 60% 29.97 in 10.0 mi SSW 5.8 mph - N/A   Clear
8:28 PM 71.6 °F 57.2 °F 60% 29.97 in 10.0 mi South 8.1 mph - N/A   Scattered Clouds
8:47 PM 71.6 °F 59.0 °F 64% 29.98 in 10.0 mi SSW 8.1 mph - N/A   Overcast
9:08 PM 69.8 °F 55.4 °F 60% 29.97 in 10.0 mi SSW 9.2 mph - N/A   Scattered Clouds
9:28 PM 69.8 °F 55.4 °F 60% 29.98 in 10.0 mi SW 8.1 mph - N/A   Clear
9:47 PM 68.0 °F 55.4 °F 64% 29.97 in 10.0 mi SSW 9.2 mph - N/A   Scattered Clouds
10:08 PM 68.0 °F 55.4 °F 64% 29.96 in 10.0 mi SSW 10.4 mph 16.1 mph N/A   Mostly Cloudy
10:28 PM 68.0 °F 53.6 °F 60% 29.97 in 10.0 mi SSW 9.2 mph - N/A   Scattered Clouds
10:47 PM 68.0 °F 53.6 °F 60% 29.97 in 10.0 mi SSW 8.1 mph - N/A   Clear
11:08 PM 66.2 °F 53.6 °F 64% 29.98 in 10.0 mi SSW 6.9 mph - N/A   Scattered Clouds
11:28 PM 66.2 °F 53.6 °F 64% 29.98 in 10.0 mi SSW 5.8 mph - N/A   Scattered Clouds
11:47 PM 64.4 °F 53.6 °F 68% 29.96 in 10.0 mi SSW 9.2 mph - N/A   Scattered Clouds